K7KRJ-10 Weather Reports


time (UTC)temp
C
wind
direction
speed
KPH
gust
KPH
rain 1hr
cm
rain 24hr
cm
rain mn
cm
humidity
%
barometer
mb
20260507125541 16 106 1.6 1.6 0.00 0.00 0.00 34 1011.7
20260507124038 16 182 0.0 0.0 0.00 0.00 0.00 34 1011.4
20260507122533 17 83 1.6 1.6 0.00 0.00 0.00 33 1011.3
20260507121032 17 57 1.6 1.6 0.00 0.00 0.00 32 1011.3
20260507115528 17 115 1.6 1.6 0.00 0.00 0.00 32 1011.6
20260507114023 18 14 1.6 1.6 0.00 0.00 0.00 31 1011.6
20260507112521 18 7 3.2 4.8 0.00 0.00 0.00 31 1011.6
20260507111016 18 32 3.2 3.2 0.00 0.00 0.00 29 1011.9
20260507105513 18 29 3.2 3.2 0.00 0.00 0.00 30 1011.8
20260507104008 18 79 0.0 0.0 0.00 0.00 0.00 29 1012.0
20260507102504 19 24 3.2 8.0 0.00 0.00 0.00 29 1012.2
20260507100958 18 353 3.2 8.0 0.00 0.00 0.00 30 1012.0
20260507095457 18 53 1.6 1.6 0.00 0.00 0.00 32 1012.1
20260507093953 18 90 0.0 0.0 0.00 0.00 0.00 31 1012.3
20260507092450 18 50 3.2 4.8 0.00 0.00 0.00 31 1012.2
20260507090945 19 49 3.2 3.2 0.00 0.00 0.00 30 1012.3
20260507085442 18 34 1.6 3.2 0.00 0.00 0.00 32 1012.5
20260507083938 18 57 1.6 3.2 0.00 0.00 0.00 30 1012.5
20260507082438 18 64 0.0 1.6 0.00 0.00 0.00 30 1012.4
20260507080935 19 50 1.6 1.6 0.00 0.00 0.00 29 1012.5
20260507075434 20 84 1.6 1.6 0.00 0.00 0.00 29 1012.5
20260507073931 20 89 0.0 1.6 0.00 0.00 0.00 28 1012.6
20260507072428 20 111 0.0 1.6 0.00 0.00 0.00 28 1012.6
20260507070924 20 112 1.6 1.6 0.00 0.00 0.00 28 1012.7
20260507065421 21 114 1.6 1.6 0.00 0.00 0.00 28 1012.5
20260507063920 21 155 1.6 1.6 0.00 0.00 0.00 27 1012.7
20260507062416 21 201 0.0 0.0 0.00 0.00 0.00 26 1012.7
20260507060916 21 201 1.6 3.2 0.00 0.00 0.00 26 1012.5
20260507055416 21 183 0.0 0.0 0.00 0.00 0.00 27 1012.6
20260507053913 22 183 0.0 0.0 0.00 0.00 0.00 25 1012.7
20260507052412 22 181 0.0 0.0 0.00 0.00 0.00 26 1012.4
20260507050909 22 177 0.0 0.0 0.00 0.00 0.00 25 1012.5
20260507045404 23 177 0.0 1.6 0.00 0.00 0.00 25 1012.6
20260507043900 23 187 0.0 0.0 0.00 0.00 0.00 24 1012.5
20260507042355 23 187 0.0 0.0 0.00 0.00 0.00 24 1012.3
20260507040852 23 187 0.0 0.0 0.00 0.00 0.00 23 1012.3
20260507035350 24 187 1.6 1.6 0.00 0.00 0.00 23 1011.8
20260507033848 25 201 0.0 1.6 0.00 0.00 0.00 22 1011.7
20260507032344 25 210 3.2 3.2 0.00 0.00 0.00 21 1011.5
20260507030840 25 222 3.2 9.7 0.00 0.00 0.00 21 1011.3
20260507025337 26 229 6.4 8.0 0.00 0.00 0.00 20 1011.2
20260507023834 26 234 4.8 8.0 0.00 0.00 0.00 20 1010.9
20260507022330 26 231 4.8 8.0 0.00 0.00 0.00 20 1011.0
20260507020825 26 216 6.4 12.9 0.00 0.00 0.00 20 1010.6
20260507015322 27 243 8.0 12.9 0.00 0.00 0.00 20 1010.5
20260507013818 27 241 6.4 11.3 0.00 0.00 0.00 19 1010.3
20260507012314 27 197 3.2 8.0 0.00 0.00 0.00 19 1010.5
20260507010813 27 269 6.4 9.7 0.00 0.00 0.00 19 1010.4
20260507005309 27 192 4.8 4.8 0.00 0.00 0.00 19 1010.4
20260507003806 28 200 4.8 4.8 0.00 0.00 0.00 19 1010.2
20260507002306 28 341 1.6 3.2 0.00 0.00 0.00 18 1010.4
20260507000802 28 238 12.9 14.5 0.00 0.00 0.00 18 1010.2
20260506235256 28 248 4.8 14.5 0.00 0.00 0.00 18 1010.4
20260506233754 28 180 4.8 9.7 0.00 0.00 0.00 19 1010.5
20260506232253 28 210 12.9 16.1 0.00 0.00 0.00 19 1010.6
20260506230752 28 242 4.8 12.9 0.00 0.00 0.00 19 1010.7
20260506225248 28 225 8.0 9.7 0.00 0.00 0.00 18 1010.8
20260506223744 28 160 1.6 9.7 0.00 0.00 0.00 19 1010.9
20260506222238 28 199 3.2 8.0 0.00 0.00 0.00 20 1011.2
20260506220737 27 307 3.2 4.8 0.00 0.00 0.00 19 1011.3
20260506215236 27 203 1.6 9.7 0.00 0.00 0.00 20 1011.6
20260506213734 28 258 9.7 11.3 0.00 0.00 0.00 18 1011.7
20260506212230 27 201 8.0 12.9 0.00 0.00 0.00 19 1012.0
20260506210725 27 166 8.0 14.5 0.00 0.00 0.00 20 1012.1
20260506205220 26 245 4.8 9.7 0.00 0.00 0.00 20 1012.4
20260506203718 27 240 8.0 14.5 0.00 0.00 0.00 20 1012.5
20260506202215 26 315 3.2 9.7 0.00 0.00 0.00 21 1012.9
20260506200711 26 213 4.8 8.0 0.00 0.00 0.00 21 1012.9
20260506195207 25 162 4.8 8.0 0.00 0.00 0.00 22 1013.0
20260506193704 25 180 9.7 14.5 0.00 0.00 0.00 22 1013.2
20260506192200 25 111 3.2 8.0 0.00 0.00 0.00 22 1013.2
20260506190656 25 36 4.8 9.7 0.00 0.00 0.00 23 1013.3
20260506185152 25 264 12.9 16.1 0.00 0.00 0.00 22 1013.7
20260506183649 25 172 1.6 8.0 0.00 0.00 0.00 24 1013.7
20260506182145 24 129 1.6 8.0 0.00 0.00 0.00 25 1014.0
20260506180643 25 213 9.7 12.9 0.00 0.00 0.00 24 1014.0
20260506175138 23 180 3.2 4.8 0.00 0.00 0.00 27 1014.0
20260506173637 23 188 3.2 4.8 0.00 0.00 0.00 27 1014.2
20260506172133 22 184 6.4 9.7 0.00 0.00 0.00 28 1014.1
20260506170631 23 259 6.4 11.3 0.00 0.00 0.00 27 1014.1
20260506165127 22 227 8.0 12.9 0.00 0.00 0.00 28 1014.2
20260506163623 22 232 8.0 12.9 0.00 0.00 0.00 29 1013.9
20260506162123 21 277 4.8 9.7 0.00 0.00 0.00 30 1014.0
20260506160619 21 166 1.6 1.6 0.00 0.00 0.00 31 1013.9
20260506155116 20 185 1.6 8.0 0.00 0.00 0.00 32 1013.9
20260506152732 20 149 6.4 8.0 0.00 0.00 0.00 32 1014.0
20260506151231 20 153 1.6 3.2 0.00 0.00 0.00 33 1014.0
20260506145728 19 150 0.0 0.0 0.00 0.00 0.00 33 1013.9
20260506144224 19 124 0.0 1.6 0.00 0.00 0.00 34 1014.1
20260506142724 18 13 1.6 3.2 0.00 0.00 0.00 36 1014.2
20260506141223 18 166 1.6 1.6 0.00 0.00 0.00 37 1013.9
20260506135719 17 149 0.0 0.0 0.00 0.00 0.00 37 1013.4
20260506134215 17 100 1.6 3.2 0.00 0.00 0.00 39 1013.4
20260506132712 16 96 1.6 1.6 0.00 0.00 0.00 42 1013.3
20260506131208 15 132 0.0 0.0 0.00 0.00 0.00 44 1012.9